User: anonymous   Login
Location: Unspecified
(0.0000°N, 0.0000°E)
Time: 07:30:25
(UTC+00:00)
Language:

HORYU 4 - Orbit

View from above orbital plane
View from above orbital plane
View from above satellite
View from above satellite

Ground track
Ground track

The orbit data is extracted from the following two-line orbital elements,

1 41340U 16012D   23088.06377704  .00011728  00000-0  76508-3 0  9995
2 41340  31.0055 338.2247 0010990 160.3002 199.8061 15.06617218390629
Epoch (UTC): 29 March 2023 01:31:50
Eccentricity: 0.0010990
inclination: 31.0055°
perigee height: 539 km
apogee height: 554 km
right ascension of ascending node: 338.2247°
argument of perigee: 160.3002°
revolutions per day: 15.06617218
mean anomaly at epoch: 199.8061°
orbit number at epoch: 39062

The dashed part of the orbit path shows where the satellite is in the earth's shadow,  

DLR